Wind_Speed
58 58 59 60 61 62 64 66 68 69 70 70 71 72 73 74 75 76 77 78 79 80 80 80 80 80 80 80 79 79 80 80 80 81 81 81 81 81 80 80 79 79 79 79 78 78 78 78 79 80 80 80 79 79 78 77 76 75 75 75 76 78 80 80 80 81 81 78 77 77 76 75 74 74 73 73 73 73 73 73 74 74 73 74 75 76 77 77
59 59 59 60 61 62 63 65 66 68 69 70 71 71 72 72 73 74 75 76 77 78 79 80 80 80 81 81 80 80 81 81 81 81 82 82 82 81 81 80 80 80 79 79 79 79 79 79 80 80 80 80 80 79 79 78 77 76 76 76 78 80 81 81 80 81 80 78 76 76 75 74 73 73 72 71 71 71 70 70 70 69 70 71 72 73 74 73
60 60 60 60 61 61 63 64 66 67 68 69 70 71 71 72 72 73 73 74 75 76 77 78 78 79 80 80 80 80 81 81 81 81 81 81 81 81 81 80 80 80 80 80 79 79 79 80 80 80 80 80 80 80 79 78 77 77 76 77 79 81 81 81 81 80 80 78 76 76 75 73 73 72 71 70 70 69 68 68 67 66 66 68 70 71 70 70
62 61 61 61 61 61 62 64 65 66 67 68 69 70 71 71 72 72 72 73 74 74 75 76 76 77 77 78 78 79 79 79 79 80 80 80 80 80 80 80 80 80 80 80 79 79 79 79 80 79 79 79 79 79 79 78 77 76 76 78 80 81 81 82 80 80 81 78 76 75 74 73 72 71 69 68 68 67 66 65 64 63 63 65 67 68 68 68
62 62 62 61 61 62 62 63 65 66 67 68 69 69 70 71 71 72 72 72 73 74 74 75 75 75 75 76 76 76 77 77 77 78 78 78 78 79 79 80 80 80 79 79 79 79 79 79 79 79 79 78 78 78 78 77 76 75 76 78 80 81 82 82 80 80 80 79 77 75 73 72 71 69 67 66 65 64 63 62 61 61 62 64 65 66 66 66
61 61 61 61 61 61 61 62 64 65 67 68 69 69 70 70 71 71 71 72 72 73 73 73 74 74 74 74 74 74 75 75 75 76 76 77 77 78 78 79 79 78 78 78 78 78 78 78 78 78 78 77 77 77 77 76 75 75 77 79 80 80 82 81 80 80 79 78 77 74 71 70 69 67 64 63 62 61 60 59 60 60 61 62 63 64 65 64
60 60 60 60 59 59 59 60 61 63 65 67 68 69 70 70 70 70 71 71 72 72 72 72 73 73 73 73 73 73 73 73 74 75 76 76 76 77 77 78 78 77 77 77 77 77 77 77 77 77 77 76 77 77 76 75 74 75 77 78 78 79 81 80 78 78 77 76 75 72 69 69 67 64 62 61 60 59 58 58 59 60 61 62 62 63 64 61
57 58 58 57 57 56 56 56 57 58 61 63 65 67 69 69 70 70 70 71 71 71 71 72 72 72 73 73 73 73 73 74 74 75 76 76 76 77 77 77 77 77 77 77 77 77 77 77 76 76 76 76 76 76 75 74 73 75 77 77 76 77 79 78 76 76 75 75 74 70 68 68 66 63 61 60 59 58 58 59 59 60 61 61 61 62 62 57
55 55 55 54 53 53 53 54 54 54 56 58 60 62 65 67 68 69 69 70 71 71 71 71 72 72 72 73 73 74 74 74 75 76 76 76 76 77 77 77 77 77 77 77 77 77 77 76 75 75 75 75 75 75 74 73 73 74 75 74 74 75 76 75 73 74 73 72 72 68 67 67 65 62 60 60 58 58 58 59 60 61 62 62 61 62 60 55
53 52 52 52 51 50 51 52 53 53 54 55 57 59 60 63 64 66 67 68 69 70 70 71 71 72 73 73 74 74 74 75 75 76 76 77 77 77 77 76 76 76 76 76 76 76 75 75 74 74 74 74 74 74 73 72 72 72 72 72 71 71 72 71 70 70 70 69 69 67 66 66 63 60 59 59 58 58 59 60 62 62 63 63 62 61 58 54
52 51 51 50 49 48 49 50 51 52 52 54 55 57 58 59 61 62 64 66 67 68 69 70 71 71 72 73 73 73 74 74 75 76 76 76 76 76 75 75 75 75 75 75 75 74 74 73 73 73 73 73 73 72 71 70 70 69 69 68 67 67 67 68 67 67 67 66 67 65 64 63 61 59 60 60 60 60 61 62 63 64 64 63 61 58 54 53
52 51 50 49 49 48 47 47 48 49 50 51 52 54 55 56 58 59 61 63 65 66 68 68 69 70 71 71 71 72 73 73 74 74 74 74 74 74 74 74 74 74 75 74 73 73 72 72 72 72 71 71 71 70 68 67 66 65 64 64 64 63 64 65 65 65 64 64 65 62 60 60 59 59 60 61 61 63 64 64 65 65 64 61 57 55 54 55
52 51 50 49 49 48 46 45 45 45 46 47 47 49 50 52 54 56 58 60 62 64 65 67 68 68 70 70 70 70 71 72 72 73 73 72 72 73 73 73 73 73 73 72 71 70 70 70 70 69 69 68 68 66 65 64 63 62 60 60 61 61 62 64 63 63 62 62 63 59 56 57 58 60 60 61 62 64 65 66 67 66 62 58 56 55 56 58
53 52 51 49 49 49 47 45 43 42 42 43 43 44 45 47 48 50 53 55 57 60 62 64 65 66 68 69 68 68 70 70 71 71 71 71 72 72 72 72 71 71 71 70 69 68 68 67 66 66 66 65 65 64 63 62 60 60 58 58 59 59 60 62 61 61 61 61 61 57 54 55 59 61 60 61 63 65 67 68 67 65 61 58 56 57 59 60
55 53 52 50 50 50 48 46 43 42 41 40 40 41 42 43 45 46 48 50 52 54 57 59 61 63 65 67 65 65 68 69 69 70 70 71 71 71 71 70 70 70 70 69 67 66 65 64 64 64 64 63 63 62 61 60 60 59 58 58 58 58 60 61 60 60 61 60 59 56 53 53 58 62 61 61 64 66 67 68 67 65 61 57 58 60 61 61
57 55 53 52 51 51 50 48 46 43 41 40 39 39 41 42 44 45 47 48 49 51 53 55 57 59 61 64 63 63 65 67 68 69 69 70 70 69 69 69 70 69 68 67 66 64 63 62 63 63 62 62 62 61 59 59 60 59 58 58 57 57 60 60 59 60 60 60 59 56 52 52 57 62 61 61 64 66 67 67 66 63 58 57 59 61 62 62
59 57 55 53 52 51 51 51 49 47 44 41 40 40 41 42 43 45 46 48 50 52 53 55 56 57 59 61 61 61 62 64 66 67 68 69 68 68 68 69 68 68 66 65 65 64 62 62 62 62 62 62 62 60 60 60 60 58 56 56 56 57 59 60 60 60 60 60 59 56 52 51 56 61 62 62 64 66 66 65 62 59 56 56 60 62 63 62
61 59 58 55 53 52 52 52 52 50 47 45 44 44 43 44 44 44 45 47 49 51 53 55 56 58 60 62 62 62 62 64 66 67 69 69 68 68 68 69 69 68 67 66 65 64 63 63 63 62 63 63 63 62 61 60 59 57 55 54 55 56 57 60 61 60 59 59 58 56 52 51 55 60 63 63 64 65 64 61 59 57 55 57 60 62 62 63
63 61 60 58 55 53 53 53 53 52 50 48 48 48 47 47 46 45 46 47 49 50 51 53 54 56 59 61 61 62 63 65 67 69 71 71 70 70 70 71 71 70 69 68 67 66 64 63 63 64 65 66 65 64 62 60 58 56 54 54 55 56 57 60 62 60 58 57 57 55 52 51 54 60 64 64 63 63 61 58 56 55 55 58 60 61 61 62
64 63 62 61 58 55 53 53 53 52 51 50 51 51 50 50 49 48 49 50 51 51 51 52 53 54 57 58 58 59 61 63 65 68 70 71 72 72 73 74 74 74 73 71 70 67 65 64 65 67 69 69 67 65 63 60 58 57 56 56 57 57 59 61 62 61 58 55 55 56 52 51 54 59 64 63 62 61 58 55 54 55 56 58 60 59 59 60
65 64 64 63 61 58 55 54 53 52 50 50 51 52 52 53 52 51 52 53 54 53 53 53 53 55 58 58 56 57 59 60 63 66 67 70 71 72 73 73 74 74 75 74 71 69 67 66 68 71 71 70 68 65 62 60 59 59 59 59 58 59 61 62 62 62 59 54 55 57 52 51 54 57 62 62 59 58 54 51 52 54 56 58 58 58 57 57
66 66 65 64 63 60 58 56 55 54 53 52 52 52 53 54 54 54 55 57 58 56 55 55 54 57 60 60 58 57 58 61 64 65 66 68 69 71 71 71 71 72 72 70 69 68 67 68 71 73 72 71 69 66 63 62 62 62 61 61 60 61 62 63 63 63 60 55 56 56 51 51 54 56 60 59 56 53 49 48 50 52 54 56 57 56 55 54
66 66 66 65 63 62 60 59 58 57 56 56 55 54 54 54 55 56 57 60 62 58 56 57 57 59 62 61 60 58 58 62 66 66 66 67 69 70 70 70 70 69 68 66 66 64 64 67 70 69 69 69 68 66 65 65 65 64 63 62 63 63 62 63 63 62 59 56 56 55 49 50 53 54 57 55 52 50 47 46 47 48 51 53 54 54 52 52
66 66 66 65 64 63 62 61 60 60 59 59 58 56 56 56 56 58 59 61 64 61 57 57 59 61 62 62 61 60 60 63 67 67 66 66 68 68 68 68 67 67 66 66 65 62 62 65 65 64 65 65 65 65 65 65 66 65 64 64 65 64 62 63 63 60 57 55 56 52 47 49 52 52 53 51 49 48 45 43 43 44 48 50 51 50 48 48
67 66 66 66 65 64 63 63 62 62 61 61 60 58 58 57 58 60 60 62 65 63 59 58 59 61 63 63 62 62 60 62 66 67 63 62 64 64 63 63 64 65 66 66 64 61 63 64 62 62 63 62 62 62 63 63 64 63 63 63 63 62 60 60 61 57 54 54 53 49 45 46 48 49 49 47 46 46 42 39 40 43 46 48 48 48 48 50
68 67 66 66 65 64 64 64 63 63 62 62 61 59 59 59 59 60 60 62 64 63 60 59 59 61 63 64 63 62 60 60 64 62 56 57 60 58 57 58 61 64 64 63 61 60 62 63 61 61 61 61 60 61 61 60 60 61 61 60 59 59 58 57 57 54 51 50 48 45 43 42 45 47 46 44 44 43 40 37 40 43 45 47 47 48 50 51
67 66 66 65 64 64 63 64 64 63 63 63 62 60 59 59 59 59 59 61 62 61 60 60 61 62 62 63 63 61 59 58 59 56 53 55 56 53 53 55 58 61 60 59 57 58 61 60 57 58 59 59 59 60 59 58 58 59 59 57 56 56 55 53 51 50 49 47 43 42 40 39 42 44 43 43 42 41 39 38 41 44 45 46 47 49 50 49
67 66 65 65 65 64 63 64 63 63 63 63 61 59 59 59 59 58 59 60 61 60 60 61 63 63 62 63 61 59 56 53 53 53 51 52 52 50 50 52 55 57 55 54 54 57 58 56 54 55 55 55 57 58 57 56 57 58 57 55 53 52 51 49 47 47 47 43 39 39 37 36 41 42 41 41 40 39 39 39 41 43 45 45 46 48 48 46
67 66 65 66 66 65 65 64 63 62 62 61 60 58 58 58 58 57 58 60 60 60 60 62 64 64 63 60 57 54 51 50 50 49 48 49 49 47 48 50 51 51 49 49 52 54 53 52 52 51 50 52 56 56 53 53 56 56 53 51 50 48 48 46 44 44 43 39 37 37 34 35 40 41 39 40 38 38 39 39 40 41 43 43 45 46 44 43
65 64 64 65 65 65 64 63 62 61 60 60 59 58 58 58 57 57 59 59 59 60 62 63 63 63 60 55 52 50 48 47 46 46 45 45 45 44 44 45 45 44 44 45 49 51 50 50 48 47 48 52 54 52 50 51 53 52 49 47 46 45 45 43 41 40 38 35 37 37 33 34 39 39 38 38 38 37 38 39 39 39 40 41 43 43 41 41
64 62 62 62 62 62 61 61 60 59 60 60 59 59 58 58 57 58 59 59 59 61 62 62 62 59 54 50 48 47 45 43 42 42 42 42 42 41 41 41 41 41 40 42 47 48 45 45 45 45 48 50 50 47 47 49 49 47 45 44 43 42 41 39 38 37 34 34 37 37 32 32 37 38 37 37 37 36 36 37 36 37 38 39 40 39 39 39
63 61 61 61 61 61 59 58 58 57 58 58 58 57 57 57 58 59 60 59 59 60 61 60 59 54 49 47 46 44 42 39 39 40 40 39 39 39 39 39 39 38 38 40 44 43 41 41 42 43 46 46 45 44 45 46 46 44 42 40 39 38 37 36 35 34 32 33 37 36 30 30 35 37 36 36 36 34 34 34 34 35 36 37 37 36 36 36
64 62 60 60 60 59 57 55 54 54 55 56 56 56 57 57 59 59 59 58 58 59 59 57 54 49 46 46 44 41 38 37 37 38 38 37 37 37 38 37 37 36 36 38 41 40 39 40 40 41 43 43 43 43 43 43 42 41 39 37 36 34 33 33 33 31 31 33 36 33 28 28 34 36 34 33 34 33 32 32 32 33 35 35 34 33 32 31
66 62 60 60 59 58 56 53 52 53 55 56 56 57 57 58 58 58 58 57 56 56 55 53 49 45 44 44 42 38 36 35 36 36 36 36 36 36 36 36 36 36 36 38 39 38 38 38 39 41 42 42 42 42 42 41 39 38 36 33 32 31 31 31 31 30 30 32 33 30 25 26 32 34 33 33 34 33 32 32 32 32 32 31 29 28 27 25
64 61 59 59 58 57 56 54 53 54 56 57 56 56 56 56 57 57 56 55 52 52 52 50 46 42 42 42 40 37 34 35 35 35 34 34 35 36 36 35 35 36 35 36 36 36 37 37 38 40 41 40 41 42 40 37 35 35 32 30 30 30 30 30 29 28 29 30 30 27 23 26 32 34 33 33 34 33 31 30 29 29 29 28 26 24 22 19
58 57 57 57 56 55 54 53 53 54 55 55 55 54 54 55 55 55 53 50 48 49 50 48 44 40 40 40 39 37 34 35 36 34 33 32 34 35 36 35 35 35 35 35 35 35 35 37 38 39 39 39 40 40 37 34 33 32 29 29 30 30 29 28 27 27 27 27 27 25 23 28 33 33 32 33 32 31 28 27 27 28 29 28 25 23 22 20
52 52 53 54 53 52 52 52 53 53 52 52 52 52 53 54 53 51 48 46 47 49 49 46 42 39 38 38 38 37 35 36 36 34 33 32 33 34 35 36 36 36 36 35 34 34 35 38 39 39 39 39 39 38 35 33 32 29 29 30 30 29 28 28 26 25 25 25 25 24 25 29 33 32 32 32 30 28 26 25 27 29 29 27 25 24 26 27
48 50 51 50 50 51 51 51 51 51 50 50 50 51 52 51 49 47 45 46 47 49 48 46 42 39 37 36 37 38 37 37 36 35 34 33 33 33 34 36 36 36 36 35 35 35 36 39 40 38 38 38 37 36 35 33 31 29 30 30 29 28 27 26 25 25 24 23 24 24 26 30 32 31 31 31 28 25 25 25 27 27 26 25 25 27 29 30
42 45 46 47 49 50 49 49 49 48 47 48 49 50 49 47 46 45 46 47 48 49 48 45 42 39 37 36 37 38 39 38 37 37 35 34 34 34 34 35 36 35 35 35 35 35 37 40 40 37 36 37 36 35 35 33 31 30 30 30 29 29 27 26 25 25 25 24 24 24 26 30 31 30 30 29 26 25 26 26 27 27 27 27 27 27 27 26
42 44 46 47 49 48 48 48 47 46 47 48 49 48 47 45 45 45 47 49 49 49 48 46 42 39 37 37 38 38 39 40 39 38 37 35 35 35 34 35 35 34 34 34 35 36 37 39 39 37 36 36 35 34 34 32 30 30 30 29 30 29 27 26 25 25 25 26 26 25 26 29 29 29 28 26 26 27 28 28 29 30 31 31 29 27 25 22
44 45 46 47 48 48 47 46 46 46 47 47 47 46 45 45 45 47 49 50 49 48 47 46 43 40 38 38 39 39 40 41 41 40 39 38 36 35 35 36 35 33 33 34 36 37 37 38 39 38 36 36 35 33 33 31 30 30 30 29 30 29 27 26 26 25 26 27 27 28 29 30 29 28 26 25 27 28 29 31 33 34 33 33 32 27 22 21
46 46 47 47 47 46 45 45 45 45 45 46 46 45 45 45 47 49 50 49 48 47 46 45 44 42 40 40 41 41 40 41 42 42 42 40 38 37 38 37 35 33 33 34 35 37 37 37 39 39 36 36 35 34 33 32 29 29 29 29 29 29 27 26 26 26 26 26 28 29 31 31 30 29 27 26 28 30 32 34 36 36 36 35 34 30 25 24
46 46 45 44 43 42 42 43 44 43 44 45 45 45 46 47 49 49 48 47 46 45 44 44 44 43 42 42 42 43 42 42 43 44 44 42 40 39 39 39 37 35 35 35 35 37 37 37 39 39 37 36 35 34 33 31 28 28 28 28 29 28 27 27 27 27 26 27 29 30 31 32 32 31 29 29 31 33 35 37 38 38 38 35 33 32 31 29
40 39 39 39 39 40 41 41 42 42 43 44 44 46 47 49 49 48 47 46 45 44 44 44 44 45 45 44 44 44 44 43 44 45 45 44 42 41 40 40 40 38 37 37 37 37 38 37 38 38 37 36 35 33 32 30 29 28 28 29 29 28 28 27 27 27 27 27 29 30 32 33 33 33 33 33 35 37 39 40 41 40 38 34 32 33 33 33
33 34 36 37 38 38 39 40 41 42 43 44 45 47 48 48 48 46 44 44 44 45 46 46 46 47 47 46 46 45 45 46 46 46 46 45 44 44 43 43 42 40 39 38 39 39 39 38 38 38 37 37 35 34 33 33 31 29 29 30 30 29 28 28 28 28 27 28 30 31 33 34 35 35 35 37 39 41 42 43 45 42 36 33 33 34 34 36
32 33 35 36 36 36 38 39 40 41 43 45 47 47 47 45 43 42 42 43 45 46 46 47 47 48 48 48 48 47 46 47 47 47 46 47 47 47 46 44 42 41 40 40 40 41 40 39 38 38 38 38 36 36 36 35 33 31 30 31 31 29 29 28 28 28 28 29 31 33 35 36 36 36 37 39 41 44 45 46 47 42 35 32 33 32 32 35
31 33 34 34 35 36 38 39 41 42 44 46 46 45 44 42 40 41 42 44 45 46 46 46 47 47 48 49 49 49 48 47 48 48 47 48 49 50 47 44 42 41 41 42 42 42 42 41 40 39 39 39 38 37 38 37 35 33 32 32 31 30 29 28 28 29 29 30 33 35 37 38 37 38 39 41 44 47 48 49 48 44 37 33 30 29 32 34
31 32 33 34 36 37 38 40 41 43 44 44 43 42 41 41 41 41 42 43 44 44 45 45 45 45 46 47 48 49 49 48 48 48 48 48 50 50 48 45 44 44 43 44 44 44 43 43 43 41 40 41 40 38 38 38 37 36 34 33 33 32 30 30 29 30 30 31 34 37 38 38 39 40 42 44 47 50 51 51 50 47 43 38 33 32 35 37
31 32 33 35 36 37 38 40 42 42 41 39 39 40 41 40 40 40 40 39 39 40 41 42 42 42 43 44 45 46 47 47 47 47 48 49 50 50 49 47 47 46 46 46 46 45 45 45 45 44 43 43 42 39 39 39 39 38 37 36 35 33 32 31 31 31 32 32 34 37 39 40 42 44 46 48 51 53 54 54 52 50 47 44 41 39 40 42
32 32 34 35 36 37 39 40 39 38 37 36 37 38 38 38 37 36 36 36 36 36 37 38 39 40 40 41 42 43 44 45 45 45 47 49 50 51 50 49 49 49 49 48 47 46 46 46 47 46 46 45 44 42 41 41 40 40 40 38 37 35 34 33 33 32 33 34 35 38 41 43 45 47 49 50 53 56 58 58 55 51 49 48 46 44 45 48
32 33 34 35 36 37 36 35 34 34 35 35 35 36 35 35 35 34 33 33 33 33 34 35 36 37 36 37 38 40 41 43 43 42 44 48 51 52 52 52 52 52 52 51 50 48 48 48 47 47 47 46 46 44 43 42 42 42 42 40 38 36 35 34 34 33 34 35 36 39 42 46 48 49 50 52 56 59 61 62 59 53 51 52 51 48 48 51
32 33 34 34 34 33 31 31 31 32 34 33 33 33 33 32 32 31 30 29 29 29 30 31 32 32 33 33 35 37 39 39 39 39 41 45 49 52 53 54 55 55 54 53 52 50 49 49 48 49 49 48 48 46 45 45 45 45 43 42 40 38 36 36 35 34 35 37 38 40 44 47 49 50 51 54 58 63 64 64 62 57 55 55 55 53 51 52
Wind_Direction
264 264 263 262 261 260 258 257 255 254 253 253 253 253 253 253 253 254 254 254 254 254 254 254 255 255 256 256 257 258 258 259 260 260 260 261 261 262 262 262 262 262 262 262 261 262 262 262 262 263 263 263 263 264 264 264 264 264 265 265 265 265 265 265 265 265 265 266 266 266 266 266 266 266 266 266 265 264 264 263 263 263 264 264 264 263 262 262
265 264 264 263 262 261 260 259 257 256 254 254 253 253 253 253 253 254 254 254 254 254 255 255 255 255 256 256 257 258 258 259 259 260 261 261 262 262 262 263 263 263 262 262 262 262 262 262 263 263 263 263 264 264 264 264 264 265 265 266 266 266 266 266 267 267 267 267 268 268 267 267 267 267 266 266 266 266 265 265 264 264 263 263 263 262 263 263
264 265 265 265 264 263 261 260 259 258 257 255 254 254 253 253 253 253 254 254 254 254 255 255 255 255 256 256 257 257 258 258 259 260 260 261 262 262 262 263 263 263 263 263 263 263 263 263 263 263 263 263 263 264 264 264 264 265 265 266 266 266 267 267 268 268 268 269 269 269 269 268 267 267 267 267 266 266 266 265 265 264 264 263 262 262 263 263
265 265 265 265 265 264 262 260 258 258 257 256 256 255 254 254 254 253 254 254 254 254 255 255 255 255 256 256 256 257 258 258 259 259 260 261 261 262 262 262 262 262 263 263 263 264 263 263 263 263 263 263 263 263 264 264 264 265 265 265 266 267 267 267 268 269 269 269 269 269 269 269 268 267 267 267 266 266 265 265 265 264 263 262 262 262 262 263
265 266 266 266 266 266 264 261 258 257 256 256 256 255 255 254 254 254 254 254 254 254 255 255 255 256 256 256 257 257 257 258 259 259 260 260 260 261 261 261 262 262 263 263 263 264 264 264 264 263 263 263 264 264 264 264 264 265 265 265 266 267 267 268 268 269 269 270 269 269 270 270 268 267 266 266 265 265 264 264 263 262 261 260 261 261 262 262
266 266 267 268 268 267 264 261 258 256 255 255 255 254 255 255 254 254 254 254 254 254 255 255 255 256 256 256 257 257 257 258 258 259 259 259 260 260 260 261 261 262 262 263 263 263 263 264 264 264 264 264 265 265 265 265 265 265 266 266 266 267 268 268 268 269 269 270 269 269 269 268 267 266 265 264 263 262 262 261 260 259 259 259 259 260 261 262
266 267 268 269 269 268 264 261 258 257 256 255 254 254 254 254 254 254 255 255 255 255 255 255 255 255 256 256 256 257 257 257 258 258 258 259 259 260 260 261 261 262 262 263 263 263 264 264 264 265 265 266 266 266 266 266 266 266 266 266 267 268 268 268 268 268 268 268 268 267 266 265 264 263 262 261 260 260 259 258 258 257 257 257 258 259 260 261
267 269 270 270 270 267 264 262 260 258 257 256 255 254 254 254 254 254 254 255 255 255 255 255 255 256 256 256 256 257 257 257 258 258 259 259 260 260 261 261 262 262 263 263 263 264 264 265 266 266 267 266 266 267 267 267 267 267 266 267 267 268 267 267 267 267 267 266 266 265 263 263 262 262 261 260 259 258 258 257 256 255 255 256 256 257 258 260
268 269 270 271 269 266 264 262 262 261 260 258 256 255 254 253 253 253 254 255 255 255 255 255 256 256 256 257 257 257 257 258 259 259 259 260 260 261 261 262 262 263 263 264 264 264 265 266 266 267 267 267 267 267 267 267 267 267 267 267 267 266 266 266 265 265 264 264 264 263 261 261 261 261 260 259 258 257 256 255 254 254 254 254 254 255 257 259
267 269 270 271 269 266 263 262 262 262 262 261 258 256 255 254 253 253 253 254 255 255 256 256 256 256 257 257 258 258 258 259 259 260 260 261 261 262 262 263 263 263 264 264 264 265 266 266 267 267 267 267 267 267 267 267 266 266 266 266 265 264 264 264 263 262 262 261 262 261 260 260 260 259 258 257 256 255 254 254 254 254 253 253 253 255 258 259
265 268 270 270 269 267 264 263 262 262 262 261 260 258 256 255 254 253 253 254 255 256 256 256 257 257 257 258 258 259 259 259 260 260 261 261 262 262 263 263 263 263 264 264 265 265 266 266 266 266 267 267 267 267 266 266 265 265 264 264 263 262 262 262 261 260 260 260 260 260 260 260 260 258 257 256 255 254 253 253 253 253 253 254 255 257 259 258
263 266 267 269 267 266 265 264 264 263 262 261 260 258 257 256 255 254 254 254 255 256 256 257 257 258 258 258 259 259 260 260 260 260 261 262 262 262 262 262 263 263 264 264 265 265 266 266 266 266 266 266 266 266 265 264 263 262 262 261 261 260 260 260 260 259 260 259 259 259 259 260 260 258 257 256 255 255 254 254 253 253 254 255 257 258 257 256
261 264 265 266 265 264 264 265 265 264 263 262 260 259 257 256 255 255 254 254 255 255 256 257 258 258 258 259 259 260 260 261 261 262 262 262 263 262 262 263 263 264 265 265 265 265 265 265 266 266 265 265 265 264 263 262 261 261 260 259 259 259 259 259 259 259 259 259 258 258 258 260 260 258 257 256 255 255 255 254 254 255 255 256 257 256 256 255
259 262 263 264 263 262 262 264 265 265 264 263 262 261 259 258 256 255 255 254 255 255 256 257 257 258 259 259 259 260 261 261 262 262 263 263 263 263 264 264 265 265 265 265 265 265 265 266 266 265 264 264 264 263 262 261 260 259 258 258 258 258 258 259 259 260 259 259 259 259 258 258 260 258 257 256 256 255 255 255 255 256 256 256 256 256 255 256
257 260 260 261 262 261 260 262 263 264 264 264 264 264 262 261 260 258 257 256 256 256 256 257 257 258 259 259 259 260 261 262 262 263 263 263 263 264 265 265 265 265 265 265 266 266 266 266 265 264 264 264 263 262 261 261 260 258 257 257 257 258 259 259 259 260 260 260 260 260 258 258 260 260 258 257 257 256 256 256 256 256 257 257 257 256 256 256
256 258 258 259 260 260 259 260 261 262 263 264 265 265 264 263 262 261 260 260 259 259 259 259 259 259 260 261 260 260 262 263 263 263 264 264 264 265 265 266 266 266 266 266 266 265 265 265 265 265 265 264 264 263 262 261 259 258 258 258 258 259 260 261 260 260 261 261 261 260 259 259 260 261 260 258 258 257 257 257 257 258 259 258 258 257 257 256
255 256 257 257 259 259 258 258 259 260 262 263 265 265 264 263 263 262 262 262 262 262 262 262 262 263 263 264 263 262 263 264 265 265 265 265 266 266 266 266 266 266 266 266 265 265 265 265 265 265 266 265 265 263 262 260 259 259 259 260 260 260 261 262 261 260 260 261 261 259 258 257 259 260 259 257 256 256 257 257 258 259 258 258 257 256 256 256
254 255 256 256 257 258 258 257 258 259 260 262 263 263 264 264 264 264 264 264 264 264 264 264 264 265 265 265 265 265 265 265 266 266 267 267 266 266 266 266 266 266 266 265 265 265 265 266 266 267 267 266 265 263 262 261 261 261 260 260 261 260 261 262 261 259 260 260 261 260 258 256 257 259 258 256 255 255 256 257 257 257 256 255 255 255 255 254
253 254 255 255 255 256 256 257 257 258 259 260 261 262 263 263 264 265 265 265 265 265 265 265 265 265 265 265 265 266 266 265 266 266 267 267 267 267 266 266 266 266 266 266 265 265 265 266 267 268 267 265 264 264 263 263 263 262 261 260 260 260 260 261 261 260 259 260 262 261 259 257 257 258 258 257 256 256 256 256 257 256 255 253 253 253 253 253
253 253 254 254 255 255 255 256 256 257 258 259 260 261 261 262 263 264 265 265 265 265 265 266 266 266 266 266 266 266 266 267 267 267 267 267 267 267 266 266 266 266 266 265 265 265 265 266 267 266 265 265 264 264 264 264 264 263 262 260 259 260 260 261 262 262 260 261 262 262 259 258 258 258 258 257 256 256 257 257 257 256 254 252 251 251 251 251
251 253 253 254 254 255 254 254 255 256 257 259 260 261 261 262 263 264 265 265 265 265 266 266 267 268 267 267 267 268 269 270 269 268 268 267 267 266 266 266 266 266 266 266 266 266 265 265 264 263 263 264 264 264 265 265 264 263 261 260 260 260 261 262 263 263 262 261 262 262 261 260 259 258 258 257 256 257 257 257 256 254 252 251 250 249 248 249
250 251 253 253 254 254 254 255 255 256 258 259 260 261 262 263 263 264 264 264 265 265 267 268 268 268 268 269 269 270 272 273 272 270 270 269 268 267 266 266 266 266 266 267 267 266 264 263 261 261 262 263 264 264 265 264 263 263 262 262 261 261 262 263 264 264 263 262 263 262 262 262 260 257 257 257 257 257 256 254 252 251 251 250 249 247 247 247
249 250 251 252 252 253 254 256 257 258 259 260 261 262 263 263 264 263 263 264 265 265 266 269 269 269 271 272 272 272 273 273 273 272 271 269 267 266 265 265 265 265 266 266 265 265 264 262 261 262 262 263 263 263 263 263 262 262 262 263 263 263 263 265 265 264 264 264 264 263 262 261 259 256 257 258 258 256 254 251 250 250 249 249 248 247 246 245
249 250 251 251 251 252 254 256 257 259 260 261 262 263 263 263 263 262 262 263 265 265 266 268 270 272 273 274 275 274 274 275 274 272 270 268 267 266 265 264 265 265 266 265 265 264 263 261 261 262 261 261 261 261 261 261 261 262 262 263 263 263 264 265 266 264 264 265 264 263 261 259 258 256 257 258 257 254 251 249 248 247 247 247 247 246 243 241
249 250 251 252 252 252 253 255 256 258 259 261 262 263 263 263 262 262 262 263 265 267 267 268 271 274 276 277 277 277 276 275 273 270 269 268 267 266 265 265 265 264 263 263 263 263 262 261 261 261 260 260 260 260 260 260 260 261 262 262 263 264 265 266 266 265 264 264 264 263 260 257 257 256 256 257 255 253 250 246 244 244 244 245 245 243 239 237
249 249 251 252 252 253 254 255 256 257 258 260 261 262 263 263 262 262 262 263 265 267 268 270 271 274 277 279 279 278 276 273 270 270 269 266 264 264 263 263 262 262 262 262 262 262 261 260 260 260 260 260 260 259 259 259 260 261 261 262 263 264 265 265 266 266 264 263 262 261 258 255 255 255 255 255 254 253 249 244 241 241 241 242 243 241 239 238
248 248 250 251 252 253 255 255 256 256 258 260 261 262 262 262 262 262 261 262 264 267 270 272 273 275 277 279 279 277 274 271 270 269 267 265 264 263 263 262 261 261 261 262 262 261 260 259 259 259 259 259 259 258 259 259 260 260 261 262 263 264 265 265 265 265 263 261 259 258 256 254 254 255 254 254 252 251 248 242 240 239 239 240 241 241 241 241
247 247 249 250 251 253 254 255 256 257 258 260 261 262 262 261 261 261 261 262 265 268 271 273 275 277 278 279 278 276 273 271 270 269 267 266 265 263 261 260 259 260 261 262 261 260 259 259 257 256 256 257 257 256 257 257 258 259 260 262 263 264 264 263 263 261 260 259 257 255 253 252 253 253 253 252 251 250 247 242 239 239 239 239 240 241 242 243
247 248 249 250 251 252 254 255 256 257 259 260 261 260 260 259 260 261 262 264 266 269 271 274 276 279 280 279 276 273 271 270 269 268 268 267 265 263 261 259 259 260 260 260 258 257 257 256 254 254 254 253 253 253 254 255 256 258 260 261 261 261 261 260 259 258 258 258 257 254 250 249 251 251 250 251 249 247 245 242 239 238 239 239 240 242 244 243
247 248 250 251 252 252 254 255 256 257 258 259 259 259 258 259 260 261 262 265 268 270 273 276 278 280 279 276 273 271 269 268 268 268 268 267 266 264 261 259 258 257 256 255 254 253 253 253 252 251 250 250 251 252 253 254 255 257 258 258 258 258 257 258 257 257 256 256 255 252 246 246 250 249 248 248 246 244 243 241 239 237 237 238 239 242 243 243
247 248 250 251 252 253 253 255 256 257 257 258 258 258 259 259 260 261 263 266 269 272 275 277 278 278 275 272 270 269 268 268 268 270 270 270 269 266 262 259 256 254 252 251 252 251 251 251 250 249 248 249 251 252 251 253 254 256 255 255 255 256 256 256 255 255 254 254 254 251 245 245 249 249 246 245 244 241 241 241 239 236 235 236 238 240 242 242
247 248 249 250 251 253 254 254 255 256 257 257 257 257 258 260 261 262 265 268 271 274 276 276 275 273 271 270 269 268 268 268 269 271 271 271 269 266 263 259 256 253 251 250 250 251 249 248 247 246 247 249 250 250 250 251 253 254 253 253 253 254 255 254 253 253 252 252 253 251 246 244 247 247 244 243 242 239 238 238 236 234 232 233 235 237 239 242
247 247 248 249 250 252 253 253 253 254 255 255 255 257 258 260 262 264 267 270 273 274 274 273 271 270 270 269 268 268 267 267 268 270 270 269 267 265 262 260 256 252 249 247 248 248 246 244 243 243 244 245 246 247 247 249 251 252 252 252 253 254 254 253 253 252 251 251 252 251 246 242 243 244 242 240 240 237 233 233 231 230 229 229 231 233 236 240
246 247 247 248 250 251 252 252 252 252 253 255 256 258 259 261 263 265 268 271 272 271 270 269 268 268 269 269 268 266 266 266 267 267 267 267 265 263 261 259 255 250 247 245 246 246 244 242 241 241 242 242 244 245 245 247 249 251 252 253 253 252 252 252 252 251 250 251 253 251 246 240 238 239 236 234 234 232 229 228 227 226 225 225 227 230 233 235
245 245 246 247 249 250 252 252 252 252 254 256 257 259 260 262 264 266 269 269 268 267 267 267 266 266 267 268 267 266 265 266 265 264 264 264 263 262 259 256 253 249 247 245 244 244 242 240 239 240 241 242 243 245 245 247 248 250 251 251 250 248 248 249 250 250 251 252 252 249 242 236 234 234 232 230 230 229 227 225 223 223 220 217 217 221 223 217
243 243 244 246 248 250 250 251 251 253 255 256 257 258 259 261 264 266 267 265 264 265 267 267 265 265 265 266 267 266 265 264 263 261 259 259 258 258 257 255 250 246 244 242 242 242 241 239 237 238 240 241 242 244 245 245 246 247 248 247 245 245 245 246 247 248 248 250 249 244 235 230 231 232 231 228 228 227 223 219 217 216 213 209 207 207 203 187
241 242 243 245 247 247 247 249 251 254 255 256 257 258 259 262 264 264 263 262 264 267 268 267 265 264 263 263 265 266 264 262 261 259 256 254 252 253 254 253 250 245 242 240 240 239 239 239 235 234 237 239 240 242 243 242 242 242 242 242 242 243 244 245 245 245 245 244 244 238 229 226 228 228 228 227 225 222 216 211 211 211 209 204 196 190 187 179
240 242 243 243 243 244 246 250 254 255 255 255 256 258 260 262 262 261 262 263 265 267 268 266 265 263 262 261 262 264 263 262 261 259 255 251 249 248 249 250 248 245 241 238 237 235 236 239 236 232 235 238 239 242 242 240 239 238 238 240 241 243 244 245 245 243 239 237 237 233 225 224 226 225 224 225 221 215 209 204 205 207 202 193 183 182 186 183
237 238 239 240 241 243 247 253 255 255 254 255 257 259 261 261 260 261 264 265 267 268 268 267 265 262 260 259 260 261 261 261 260 258 255 251 248 246 245 246 246 243 240 236 234 232 233 238 237 233 234 237 237 240 241 239 238 237 238 240 241 242 243 243 243 240 234 228 227 226 222 223 225 224 223 221 214 206 201 197 198 196 188 181 179 182 183 183
232 234 235 238 241 245 251 255 255 253 254 257 258 259 259 259 260 263 265 266 267 268 268 267 265 262 259 258 258 258 258 258 257 256 254 251 247 245 242 243 243 241 238 234 231 229 231 236 237 233 233 235 235 237 239 239 239 239 240 242 243 243 243 242 242 239 232 225 219 215 216 220 221 221 220 216 207 199 194 191 190 186 180 176 175 174 174 183
233 235 237 241 245 250 253 254 253 254 256 257 258 259 259 260 262 264 266 267 267 267 268 267 265 261 258 257 257 256 255 255 255 254 252 250 247 244 241 240 240 238 235 231 228 227 227 232 236 232 231 233 232 233 236 236 237 238 239 243 245 244 242 242 241 237 231 225 218 211 209 213 215 215 215 210 202 195 188 186 185 181 177 173 167 164 174 195
237 239 243 247 250 251 251 251 253 255 256 257 258 260 261 262 264 265 267 267 267 267 266 265 264 261 258 257 256 255 253 252 252 251 250 248 247 244 241 240 238 235 232 229 226 226 225 229 234 232 229 231 231 231 233 234 234 237 239 242 244 243 242 241 239 234 229 224 219 213 209 209 209 207 207 204 198 190 185 184 181 177 173 170 167 165 176 199
241 244 247 248 248 247 248 251 253 255 256 258 260 262 264 265 266 268 268 268 267 266 264 262 262 261 259 257 256 255 252 250 249 249 248 246 245 243 241 240 237 233 229 227 225 225 224 227 233 233 229 230 231 231 233 234 235 238 240 241 241 241 240 239 237 232 226 221 218 214 210 209 207 202 199 198 193 187 183 181 177 172 168 171 177 177 181 197
239 241 242 243 244 246 249 251 253 255 258 260 262 265 267 268 270 270 271 270 268 266 264 263 262 261 259 257 255 254 252 249 247 247 247 245 243 242 241 239 237 233 229 224 222 224 224 225 231 233 230 229 230 231 233 234 234 236 239 239 238 237 236 236 235 231 224 219 216 213 209 208 207 201 195 192 188 184 182 179 175 173 172 177 186 190 193 202
233 236 239 242 245 247 250 253 255 258 260 263 265 267 268 270 271 271 269 268 267 266 265 264 263 262 260 258 256 253 250 249 246 244 245 245 242 240 239 237 236 234 231 227 222 222 223 223 227 232 231 228 227 228 230 231 230 231 235 237 236 235 234 234 233 230 222 217 214 211 208 207 206 202 195 190 186 183 181 179 175 174 178 184 190 195 203 209
233 236 240 243 246 250 253 255 258 261 264 266 269 270 271 271 270 270 269 268 266 265 263 262 261 261 260 258 256 253 249 247 245 243 241 242 242 240 237 236 235 233 232 230 225 222 222 222 224 229 231 228 225 225 228 229 228 228 232 235 235 234 233 232 231 228 221 216 212 208 207 206 205 202 196 190 186 184 181 179 176 175 182 192 196 200 206 213
234 237 241 245 248 252 255 258 261 264 267 270 272 273 274 273 272 272 271 271 269 268 266 263 261 259 258 256 255 253 249 245 243 242 239 238 240 240 239 236 235 233 231 230 228 224 222 222 223 225 230 230 225 224 227 228 227 227 228 232 234 232 230 229 228 226 221 216 212 209 206 205 203 200 197 192 188 185 183 180 178 178 182 189 197 207 213 215
235 239 243 247 251 254 258 261 265 268 271 273 274 274 275 276 276 275 273 271 270 269 267 265 263 260 257 255 253 252 250 246 242 239 238 236 237 239 239 236 234 233 231 230 228 226 223 222 222 222 227 230 226 223 227 228 227 226 226 229 231 231 228 226 224 223 221 217 213 211 207 204 202 200 198 194 190 187 183 180 180 182 183 185 192 206 216 217
237 241 245 249 253 257 262 266 269 272 273 274 275 276 277 278 278 277 275 272 270 268 266 264 262 259 257 254 252 250 249 247 242 237 235 234 234 235 236 235 233 232 231 230 229 227 224 223 223 222 224 228 227 223 226 228 228 227 227 227 230 230 228 226 222 221 220 217 214 212 208 204 201 200 198 194 191 188 185 181 182 184 186 188 192 200 208 212
239 244 248 253 257 263 267 270 272 273 274 276 278 280 282 282 282 281 279 277 273 270 267 265 262 259 256 253 251 249 247 246 242 237 233 231 231 231 231 232 232 231 231 231 230 228 226 225 225 225 225 228 228 225 224 227 228 228 227 227 228 229 228 227 224 221 219 217 215 213 210 205 203 201 199 195 191 189 186 184 185 188 191 194 197 200 205 209
243 248 253 258 263 268 270 272 273 276 279 282 284 286 287 287 286 283 281 278 276 272 269 265 263 261 258 254 252 250 247 244 242 238 232 229 227 227 226 227 228 228 228 229 230 229 228 226 226 227 227 228 229 228 225 225 227 228 228 227 227 227 228 228 226 223 221 218 216 214 211 208 205 202 200 197 193 191 189 188 189 192 194 198 202 204 206 209
248 254 259 264 268 270 271 274 279 283 285 287 288 288 287 287 286 285 283 280 278 275 272 268 264 262 259 254 250 249 247 244 241 238 233 229 226 225 224 224 226 227 226 226 227 228 229 228 227 227 227 227 229 229 228 226 225 227 227 227 226 225 225 226 226 223 222 220 217 215 213 212 209 205 202 199 197 195 194 193 193 195 198 202 206 209 210 211
Height
10641 10642 10643 10644 10646 10647 10649 10650 10652 10654 10656 10658 10660 10662 10664 10666 10668 10670 10672 10674 10675 10677 10678 10680 10682 10683 10684 10686 10687 10689 10690 10692 10693 10694 10696 10698 10698 10700 10703 10703 10705 10707 10708 10709 10711 10712 10714 10715 10714 10715 10716 10717 10719 10720 10723 10726 10727 10728 10727 10727 10724 10720 10719 10722 10725 10725 10727 10733 10738 10740 10743 10747 10749 10749 10751 10752 10753 10753 10755 10758 10760 10761 10762 10761 10760 10758 10759 10761
10634 10635 10637 10638 10639 10640 10641 10643 10645 10646 10648 10650 10652 10654 10656 10658 10661 10663 10665 10666 10668 10669 10671 10672 10674 10675 10677 10678 10680 10682 10683 10684 10685 10687 10689 10690 10691 10693 10694 10696 10698 10699 10700 10701 10703 10705 10706 10707 10707 10708 10709 10710 10712 10713 10715 10718 10720 10721 10721 10720 10715 10710 10712 10715 10718 10718 10720 10726 10731 10732 10735 10739 10741 10741 10742 10743 10744 10746 10747 10750 10753 10754 10755 10753 10751 10749 10750 10754
10628 10629 10630 10631 10632 10633 10634 10636 10637 10639 10640 10642 10644 10646 10648 10651 10653 10655 10657 10658 10660 10661 10663 10664 10666 10667 10669 10671 10673 10674 10675 10677 10678 10680 10681 10683 10684 10685 10686 10689 10690 10691 10692 10693 10695 10698 10698 10699 10699 10700 10702 10703 10705 10706 10708 10711 10713 10714 10715 10712 10704 10703 10706 10707 10710 10711 10712 10718 10723 10724 10727 10731 10732 10733 10735 10735 10736 10738 10739 10742 10745 10747 10747 10744 10742 10741 10744 10747
10621 10622 10623 10624 10625 10626 10627 10628 10629 10631 10632 10634 10636 10638 10640 10643 10645 10647 10649 10651 10652 10654 10655 10657 10658 10660 10662 10664 10665 10667 10668 10669 10671 10672 10674 10675 10676 10677 10678 10680 10681 10683 10685 10686 10688 10689 10690 10690 10691 10693 10694 10696 10698 10699 10701 10704 10706 10708 10707 10702 10696 10697 10698 10698 10703 10705 10704 10710 10716 10717 10719 10722 10724 10726 10728 10729 10729 10730 10732 10734 10737 10739 10738 10736 10733 10735 10738 10740
10614 10616 10617 10617 10618 10619 10620 10621 10622 10623 10625 10626 10628 10630 10632 10635 10637 10639 10641 10643 10644 10646 10648 10649 10651 10653 10655 10656 10658 10659 10660 10662 10663 10664 10666 10667 10668 10669 10670 10671 10674 10676 10678 10679 10680 10681 10681 10682 10684 10685 10686 10689 10691 10692 10693 10697 10700 10701 10698 10692 10690 10690 10689 10691 10698 10697 10697 10703 10707 10711 10713 10713 10715 10718 10721 10722 10722 10723 10725 10727 10729 10729 10730 10728 10727 10729 10732 10735
10608 10609 10610 10610 10611 10611 10612 10613 10614 10615 10617 10619 10620 10623 10625 10627 10629 10631 10633 10635 10637 10638 10640 10642 10644 10645 10647 10648 10650 10652 10652 10654 10656 10656 10657 10658 10659 10660 10662 10664 10666 10668 10670 10671 10672 10673 10674 10675 10676 10678 10680 10682 10684 10684 10686 10689 10692 10692 10688 10684 10683 10683 10682 10685 10691 10690 10692 10695 10698 10704 10706 10705 10706 10710 10714 10714 10714 10716 10718 10719 10720 10720 10721 10721 10722 10724 10726 10731
10601 10602 10603 10603 10603 10604 10604 10605 10606 10607 10609 10611 10613 10615 10617 10619 10622 10624 10626 10627 10629 10631 10633 10635 10636 10638 10639 10640 10642 10644 10644 10647 10647 10647 10649 10650 10651 10652 10654 10657 10659 10660 10662 10663 10664 10665 10666 10667 10669 10671 10674 10675 10676 10676 10678 10682 10685 10683 10678 10677 10677 10676 10674 10678 10684 10683 10685 10686 10688 10696 10698 10696 10697 10702 10706 10706 10707 10710 10710 10712 10712 10712 10714 10715 10717 10718 10720 10727
10594 10595 10596 10596 10596 10596 10597 10597 10599 10600 10602 10603 10605 10608 10610 10612 10614 10616 10618 10620 10621 10623 10625 10627 10629 10630 10632 10633 10634 10635 10637 10639 10639 10638 10641 10642 10643 10645 10647 10649 10651 10653 10654 10655 10657 10658 10659 10660 10663 10665 10666 10666 10667 10668 10671 10675 10676 10673 10669 10670 10671 10669 10665 10670 10676 10675 10677 10677 10678 10688 10690 10687 10691 10696 10699 10699 10701 10703 10703 10704 10704 10705 10707 10708 10712 10712 10715 10724
10588 10588 10589 10589 10589 10589 10590 10591 10592 10594 10595 10597 10599 10600 10603 10605 10607 10609 10611 10612 10614 10616 10618 10620 10621 10623 10624 10625 10626 10627 10630 10631 10630 10631 10633 10634 10636 10638 10640 10642 10644 10645 10646 10647 10648 10650 10652 10654 10656 10657 10657 10658 10660 10661 10664 10666 10667 10664 10662 10664 10664 10660 10658 10662 10668 10667 10669 10669 10670 10679 10681 10680 10686 10691 10692 10692 10694 10695 10696 10696 10696 10698 10699 10702 10705 10706 10712 10721
10582 10582 10582 10583 10583 10583 10584 10585 10586 10588 10589 10590 10592 10594 10596 10598 10600 10602 10604 10606 10607 10608 10610 10612 10613 10615 10616 10618 10618 10619 10622 10623 10622 10623 10625 10627 10629 10630 10632 10634 10636 10637 10638 10639 10640 10643 10645 10648 10648 10649 10649 10651 10652 10653 10656 10657 10658 10657 10655 10656 10655 10653 10651 10654 10659 10658 10660 10663 10663 10669 10672 10674 10681 10684 10684 10685 10686 10687 10687 10687 10688 10691 10693 10696 10699 10703 10711 10716
10576 10576 10576 10577 10577 10578 10578 10580 10581 10582 10583 10584 10586 10587 10589 10591 10594 10596 10598 10599 10600 10601 10602 10604 10606 10607 10608 10609 10611 10612 10613 10614 10615 10615 10617 10619 10621 10623 10625 10626 10628 10629 10630 10631 10633 10636 10639 10640 10640 10640 10641 10643 10643 10644 10648 10648 10649 10650 10649 10648 10647 10647 10645 10646 10649 10649 10654 10658 10657 10662 10666 10669 10675 10677 10676 10677 10678 10678 10679 10680 10681 10683 10686 10691 10697 10703 10708 10709
10570 10570 10571 10571 10572 10572 10573 10574 10575 10577 10578 10579 10580 10582 10583 10585 10587 10589 10591 10592 10593 10594 10595 10596 10598 10599 10600 10601 10604 10605 10605 10606 10607 10608 10609 10612 10614 10615 10617 10618 10619 10620 10622 10624 10627 10630 10631 10632 10632 10633 10634 10635 10635 10637 10640 10640 10641 10642 10642 10641 10640 10641 10640 10637 10641 10643 10648 10651 10650 10658 10663 10664 10667 10668 10667 10670 10671 10670 10671 10673 10673 10675 10681 10688 10695 10700 10700 10700
10564 10564 10565 10566 10566 10567 10568 10569 10570 10571 10573 10574 10575 10577 10578 10580 10582 10583 10584 10585 10586 10587 10588 10589 10590 10591 10592 10593 10597 10598 10597 10598 10598 10600 10603 10605 10605 10606 10608 10610 10612 10613 10614 10617 10620 10622 10623 10623 10624 10626 10626 10626 10627 10630 10631 10632 10633 10635 10636 10635 10633 10635 10633 10630 10634 10638 10642 10643 10643 10654 10660 10659 10658 10658 10660 10662 10662 10662 10663 10665 10666 10670 10678 10686 10691 10693 10691 10692
10557 10558 10559 10560 10561 10562 10563 10564 10565 10567 10568 10569 10570 10572 10573 10575 10576 10577 10578 10578 10579 10580 10581 10582 10582 10584 10583 10584 10590 10591 10589 10590 10591 10593 10596 10596 10597 10598 10601 10603 10605 10605 10606 10609 10612 10614 10616 10616 10617 10617 10617 10618 10620 10622 10623 10625 10627 10627 10629 10628 10627 10629 10626 10624 10630 10632 10634 10636 10639 10649 10656 10655 10650 10648 10652 10654 10654 10655 10655 10657 10659 10665 10674 10682 10685 10685 10684 10685
10551 10552 10553 10554 10555 10556 10558 10559 10561 10562 10563 10564 10566 10568 10568 10570 10570 10571 10571 10572 10573 10574 10574 10575 10575 10577 10576 10576 10584 10585 10581 10583 10585 10586 10588 10587 10589 10592 10595 10595 10596 10597 10599 10603 10605 10607 10609 10609 10608 10609 10610 10611 10612 10614 10616 10618 10619 10619 10621 10621 10621 10623 10619 10620 10625 10626 10627 10631 10635 10643 10649 10650 10643 10640 10645 10648 10646 10647 10648 10650 10654 10660 10670 10678 10679 10677 10677 10679
10544 10546 10547 10548 10549 10551 10553 10554 10556 10557 10558 10560 10562 10563 10563 10564 10564 10565 10565 10566 10568 10568 10568 10568 10568 10571 10570 10569 10576 10579 10577 10577 10577 10578 10579 10579 10583 10586 10587 10587 10587 10589 10592 10595 10598 10599 10601 10601 10600 10601 10603 10603 10604 10607 10609 10610 10610 10612 10615 10615 10617 10617 10613 10615 10619 10619 10622 10625 10629 10636 10643 10644 10638 10633 10637 10641 10639 10638 10641 10644 10649 10657 10666 10672 10670 10669 10670 10673
10538 10539 10541 10542 10543 10545 10547 10548 10550 10551 10553 10556 10557 10558 10557 10558 10558 10559 10560 10561 10561 10561 10562 10563 10563 10565 10564 10564 10568 10572 10573 10572 10570 10571 10571 10573 10577 10579 10579 10579 10580 10582 10585 10587 10589 10591 10593 10593 10594 10595 10596 10596 10597 10600 10601 10601 10602 10606 10610 10610 10611 10611 10608 10608 10610 10613 10616 10618 10621 10628 10635 10637 10631 10625 10627 10631 10630 10630 10634 10639 10646 10653 10661 10663 10661 10660 10662 10665
10531 10533 10534 10536 10537 10539 10541 10542 10544 10546 10549 10551 10552 10552 10552 10552 10553 10554 10555 10555 10555 10556 10556 10557 10558 10558 10558 10558 10561 10564 10567 10566 10564 10564 10563 10565 10569 10571 10571 10571 10573 10574 10577 10580 10581 10583 10586 10586 10587 10588 10588 10587 10588 10591 10593 10593 10596 10602 10605 10605 10605 10604 10602 10599 10600 10606 10610 10611 10614 10621 10627 10629 10624 10618 10616 10620 10623 10624 10628 10635 10642 10647 10653 10653 10650 10651 10653 10656
10524 10526 10527 10529 10531 10533 10534 10536 10538 10540 10544 10545 10545 10546 10546 10546 10548 10549 10549 10549 10549 10550 10551 10551 10551 10552 10550 10551 10554 10557 10559 10558 10558 10557 10556 10558 10561 10562 10563 10564 10564 10566 10569 10571 10572 10576 10579 10580 10582 10581 10578 10577 10580 10583 10586 10588 10592 10595 10598 10599 10598 10597 10596 10591 10592 10598 10603 10606 10609 10612 10618 10621 10618 10611 10608 10612 10617 10619 10625 10632 10636 10640 10644 10643 10641 10643 10645 10647
10517 10519 10521 10522 10524 10526 10528 10530 10532 10534 10538 10539 10539 10540 10541 10541 10542 10543 10543 10542 10542 10543 10544 10545 10545 10545 10544 10544 10549 10550 10551 10552 10551 10550 10550 10550 10552 10553 10554 10555 10556 10557 10560 10562 10564 10569 10573 10575 10575 10571 10567 10569 10573 10576 10579 10583 10586 10588 10590 10590 10590 10590 10588 10585 10586 10590 10595 10602 10603 10604 10610 10613 10610 10605 10600 10605 10611 10615 10622 10629 10631 10632 10634 10633 10632 10634 10636 10638
10510 10512 10514 10515 10517 10519 10521 10523 10526 10528 10531 10533 10532 10534 10535 10536 10537 10538 10537 10534 10533 10536 10538 10539 10540 10538 10535 10537 10544 10545 10545 10546 10543 10542 10543 10542 10543 10545 10545 10547 10548 10549 10550 10553 10557 10561 10565 10568 10564 10559 10558 10562 10566 10570 10574 10577 10578 10580 10580 10581 10583 10583 10580 10579 10581 10582 10588 10597 10596 10595 10603 10605 10602 10598 10593 10598 10606 10611 10619 10625 10624 10624 10624 10623 10624 10626 10629 10631
10503 10504 10506 10508 10510 10513 10514 10517 10519 10522 10525 10526 10526 10528 10528 10530 10531 10531 10530 10526 10524 10530 10532 10532 10534 10531 10526 10531 10539 10541 10540 10537 10534 10535 10536 10535 10535 10535 10536 10539 10540 10539 10541 10546 10550 10552 10555 10557 10551 10549 10553 10556 10559 10564 10567 10569 10570 10570 10572 10574 10575 10575 10574 10573 10575 10576 10580 10589 10588 10588 10597 10597 10592 10590 10587 10594 10603 10608 10615 10617 10616 10616 10615 10615 10616 10618 10623 10625
10495 10497 10499 10501 10504 10506 10508 10510 10513 10515 10517 10518 10519 10522 10522 10523 10524 10524 10523 10518 10515 10523 10527 10526 10527 10524 10522 10526 10532 10535 10534 10528 10524 10526 10527 10526 10525 10525 10528 10530 10531 10532 10535 10538 10540 10543 10546 10543 10540 10544 10548 10549 10552 10556 10559 10560 10561 10562 10564 10566 10566 10566 10568 10566 10567 10570 10575 10581 10580 10582 10591 10589 10583 10582 10582 10590 10599 10603 10608 10609 10609 10610 10608 10608 10609 10613 10618 10619
10488 10490 10492 10494 10497 10499 10501 10503 10506 10507 10509 10510 10512 10515 10515 10516 10517 10515 10516 10512 10507 10514 10522 10521 10520 10518 10518 10521 10523 10526 10527 10521 10515 10515 10518 10518 10516 10517 10520 10522 10523 10526 10527 10528 10530 10535 10536 10532 10534 10539 10540 10542 10544 10547 10550 10551 10552 10555 10557 10558 10557 10558 10562 10560 10559 10565 10570 10572 10571 10576 10584 10581 10576 10577 10579 10587 10593 10596 10600 10604 10604 10604 10602 10602 10604 10609 10612 10612
10480 10482 10485 10488 10491 10492 10494 10496 10498 10500 10501 10503 10505 10508 10508 10508 10508 10507 10509 10506 10501 10505 10514 10516 10515 10513 10512 10513 10515 10516 10518 10514 10504 10503 10510 10511 10508 10510 10513 10515 10516 10516 10516 10518 10522 10527 10525 10523 10528 10531 10532 10534 10537 10539 10541 10543 10544 10547 10548 10549 10550 10551 10555 10554 10553 10559 10564 10564 10565 10571 10576 10575 10571 10572 10576 10582 10586 10589 10595 10599 10598 10597 10596 10597 10599 10603 10604 10604
10473 10475 10478 10481 10484 10486 10487 10489 10491 10492 10494 10495 10498 10501 10501 10500 10500 10501 10503 10500 10495 10499 10506 10509 10510 10508 10507 10505 10505 10506 10507 10503 10494 10496 10504 10502 10499 10503 10506 10507 10507 10505 10507 10511 10515 10519 10515 10515 10521 10524 10525 10528 10530 10531 10533 10535 10538 10539 10540 10542 10545 10545 10547 10548 10549 10553 10556 10557 10561 10565 10568 10569 10567 10568 10572 10577 10580 10583 10589 10592 10591 10590 10591 10592 10594 10596 10597 10600
10465 10468 10472 10474 10477 10480 10481 10481 10483 10485 10486 10487 10490 10493 10494 10493 10493 10494 10496 10493 10491 10494 10498 10501 10501 10501 10501 10498 10496 10496 10496 10494 10489 10491 10495 10492 10492 10497 10499 10499 10498 10496 10500 10504 10509 10509 10506 10509 10516 10517 10517 10520 10522 10523 10525 10530 10531 10531 10533 10536 10538 10539 10540 10543 10545 10548 10548 10552 10557 10559 10562 10564 10562 10563 10568 10571 10574 10578 10582 10585 10585 10585 10586 10588 10589 10591 10593 10598
10458 10462 10466 10467 10470 10473 10473 10473 10475 10478 10479 10480 10483 10486 10486 10486 10486 10487 10488 10486 10487 10490 10492 10493 10492 10493 10493 10490 10488 10487 10487 10487 10485 10484 10486 10486 10487 10490 10491 10490 10489 10490 10495 10499 10500 10499 10499 10504 10509 10509 10511 10513 10513 10514 10519 10523 10523 10523 10527 10530 10532 10534 10535 10538 10540 10541 10542 10547 10552 10553 10557 10559 10557 10559 10563 10565 10569 10573 10575 10578 10579 10580 10582 10584 10585 10587 10591 10596
10451 10456 10459 10460 10463 10466 10466 10466 10469 10471 10472 10473 10475 10478 10479 10478 10479 10480 10480 10480 10482 10485 10486 10485 10484 10484 10483 10482 10481 10480 10480 10480 10479 10478 10479 10479 10479 10483 10483 10482 10483 10486 10490 10492 10491 10490 10493 10497 10500 10503 10506 10505 10503 10508 10514 10516 10515 10517 10522 10525 10527 10528 10529 10532 10535 10536 10538 10543 10546 10547 10552 10553 10551 10554 10557 10560 10563 10567 10569 10572 10574 10576 10579 10581 10582 10584 10589 10594
10445 10449 10452 10453 10455 10458 10459 10459 10462 10464 10465 10466 10468 10470 10471 10472 10473 10473 10473 10474 10477 10478 10478 10478 10477 10476 10475 10475 10474 10473 10473 10473 10473 10472 10472 10472 10473 10475 10476 10476 10478 10480 10483 10484 10482 10483 10487 10490 10494 10498 10498 10495 10497 10504 10509 10508 10508 10513 10517 10519 10521 10523 10524 10527 10530 10532 10535 10540 10539 10540 10546 10548 10546 10549 10552 10554 10557 10561 10564 10566 10570 10573 10575 10577 10579 10581 10586 10590
10439 10442 10444 10446 10448 10450 10452 10453 10456 10457 10458 10459 10461 10462 10463 10464 10466 10466 10466 10469 10471 10471 10471 10471 10469 10468 10467 10467 10466 10466 10466 10467 10467 10466 10465 10466 10467 10468 10469 10470 10472 10473 10476 10477 10474 10477 10483 10486 10489 10491 10490 10490 10494 10500 10502 10502 10504 10508 10512 10514 10516 10518 10520 10523 10526 10528 10532 10534 10532 10534 10541 10544 10543 10544 10547 10549 10551 10556 10559 10562 10566 10569 10571 10573 10575 10579 10583 10586
10432 10435 10437 10440 10441 10443 10445 10447 10449 10451 10450 10452 10454 10455 10456 10457 10458 10458 10460 10464 10466 10464 10463 10462 10461 10461 10460 10459 10459 10460 10461 10461 10461 10459 10459 10460 10461 10461 10462 10464 10466 10468 10471 10471 10469 10473 10479 10481 10483 10484 10485 10487 10491 10495 10497 10497 10499 10503 10506 10509 10512 10514 10517 10520 10522 10524 10528 10528 10526 10530 10537 10541 10538 10538 10542 10544 10547 10551 10555 10558 10561 10564 10567 10569 10572 10576 10579 10583
10424 10428 10431 10433 10435 10436 10439 10441 10443 10444 10444 10445 10447 10448 10450 10450 10450 10451 10454 10458 10458 10455 10454 10453 10453 10454 10454 10452 10453 10454 10455 10455 10454 10454 10454 10455 10455 10455 10456 10458 10461 10463 10464 10465 10465 10469 10474 10475 10477 10479 10480 10483 10486 10489 10491 10492 10495 10498 10502 10506 10509 10511 10514 10516 10518 10521 10523 10522 10522 10527 10533 10536 10534 10534 10538 10540 10542 10547 10550 10553 10556 10559 10562 10565 10568 10572 10576 10581
10417 10421 10425 10427 10429 10430 10432 10435 10437 10438 10437 10438 10440 10442 10443 10443 10444 10446 10448 10451 10450 10447 10445 10446 10447 10449 10448 10445 10446 10448 10449 10449 10449 10449 10449 10449 10450 10450 10451 10454 10456 10457 10459 10460 10461 10465 10468 10470 10472 10473 10474 10478 10480 10482 10485 10489 10492 10495 10499 10503 10506 10508 10509 10511 10514 10517 10518 10518 10520 10524 10529 10531 10529 10529 10534 10536 10538 10542 10545 10549 10552 10555 10558 10562 10566 10570 10574 10579
10410 10415 10418 10421 10422 10424 10426 10428 10430 10431 10431 10432 10434 10435 10436 10437 10438 10440 10441 10443 10442 10439 10437 10439 10441 10443 10442 10440 10440 10442 10443 10443 10443 10443 10444 10444 10445 10445 10446 10448 10450 10452 10454 10456 10458 10461 10463 10466 10468 10468 10470 10474 10476 10477 10482 10487 10490 10492 10496 10499 10501 10502 10505 10507 10510 10512 10514 10515 10517 10521 10525 10525 10523 10525 10529 10531 10534 10537 10541 10545 10549 10552 10555 10559 10563 10567 10572 10577
10404 10409 10412 10414 10416 10418 10420 10422 10424 10425 10425 10426 10427 10428 10429 10431 10432 10433 10434 10435 10434 10431 10430 10432 10435 10437 10437 10435 10434 10435 10438 10438 10437 10438 10439 10440 10440 10440 10441 10443 10445 10447 10449 10452 10454 10457 10459 10460 10462 10464 10466 10469 10471 10473 10479 10483 10486 10489 10492 10494 10495 10498 10501 10503 10506 10508 10510 10511 10513 10516 10519 10519 10519 10522 10526 10528 10531 10534 10538 10542 10545 10548 10551 10555 10559 10563 10569 10573
10400 10403 10405 10408 10410 10413 10415 10416 10417 10419 10420 10420 10421 10422 10423 10424 10425 10426 10427 10428 10426 10424 10424 10426 10429 10431 10431 10430 10429 10429 10431 10431 10431 10433 10434 10435 10435 10435 10436 10437 10439 10442 10444 10447 10450 10452 10454 10453 10455 10459 10462 10464 10467 10471 10475 10479 10482 10485 10488 10489 10491 10495 10498 10500 10502 10504 10506 10507 10509 10512 10514 10514 10516 10519 10522 10525 10528 10532 10535 10538 10541 10544 10548 10551 10555 10560 10565 10568
10395 10397 10399 10402 10405 10407 10409 10410 10411 10413 10414 10414 10415 10415 10417 10418 10419 10420 10420 10420 10419 10418 10418 10420 10422 10425 10426 10425 10425 10424 10424 10425 10426 10428 10429 10430 10430 10431 10431 10432 10434 10437 10440 10442 10445 10448 10449 10447 10450 10456 10458 10460 10465 10468 10471 10475 10478 10481 10483 10485 10489 10492 10494 10496 10499 10500 10501 10502 10504 10507 10509 10510 10513 10516 10519 10521 10525 10529 10532 10535 10538 10542 10546 10549 10553 10557 10561 10565
10389 10391 10394 10397 10399 10402 10403 10405 10406 10407 10408 10409 10409 10410 10411 10412 10413 10413 10413 10413 10413 10412 10411 10413 10416 10418 10420 10420 10419 10419 10419 10420 10421 10422 10424 10425 10426 10426 10427 10427 10429 10433 10435 10438 10441 10444 10445 10443 10446 10452 10455 10457 10461 10464 10467 10471 10475 10477 10480 10483 10486 10488 10491 10493 10495 10496 10497 10497 10499 10502 10505 10506 10509 10513 10515 10519 10523 10526 10529 10532 10535 10539 10543 10546 10550 10554 10559 10565
10384 10387 10390 10392 10395 10397 10398 10400 10400 10401 10402 10403 10403 10403 10405 10406 10407 10407 10406 10406 10407 10406 10405 10406 10409 10412 10413 10413 10413 10413 10414 10414 10415 10416 10418 10419 10420 10422 10423 10423 10425 10429 10432 10435 10437 10440 10441 10440 10443 10448 10451 10453 10457 10460 10463 10468 10472 10474 10477 10480 10482 10484 10487 10489 10490 10492 10492 10493 10495 10498 10500 10503 10506 10509 10512 10516 10520 10523 10526 10529 10532 10536 10539 10543 10546 10550 10554 10561
10380 10382 10385 10388 10390 10392 10393 10394 10395 10396 10396 10396 10397 10398 10399 10400 10401 10400 10400 10400 10400 10400 10399 10400 10402 10404 10406 10406 10406 10407 10409 10409 10409 10411 10412 10413 10415 10417 10419 10419 10421 10424 10427 10430 10433 10435 10437 10438 10439 10443 10447 10449 10453 10457 10459 10463 10467 10470 10473 10476 10478 10480 10483 10485 10487 10487 10488 10490 10491 10493 10496 10499 10503 10506 10510 10514 10517 10520 10523 10526 10530 10534 10537 10540 10543 10546 10551 10557
10376 10379 10381 10383 10385 10386 10387 10389 10389 10390 10391 10391 10391 10392 10393 10394 10394 10394 10394 10394 10394 10394 10393 10393 10394 10396 10398 10400 10400 10401 10403 10404 10404 10404 10406 10408 10411 10413 10414 10415 10417 10420 10422 10425 10428 10430 10433 10434 10434 10439 10443 10446 10449 10453 10455 10459 10463 10466 10469 10472 10473 10476 10479 10481 10482 10483 10485 10486 10488 10490 10492 10495 10499 10503 10507 10511 10515 10518 10521 10524 10528 10531 10535 10540 10542 10543 10547 10554
10372 10374 10376 10378 10380 10381 10383 10383 10384 10385 10385 10385 10386 10386 10387 10387 10387 10387 10387 10387 10387 10387 10387 10387 10388 10389 10390 10392 10393 10394 10396 10398 10398 10398 10400 10403 10406 10408 10409 10411 10413 10415 10417 10420 10423 10426 10429 10430 10431 10434 10439 10442 10445 10449 10452 10456 10460 10463 10465 10468 10469 10472 10474 10475 10477 10479 10481 10483 10484 10487 10490 10493 10496 10499 10503 10507 10511 10514 10518 10522 10526 10530 10534 10539 10541 10542 10544 10549
10367 10370 10372 10373 10375 10377 10378 10379 10379 10380 10380 10380 10381 10381 10381 10381 10380 10381 10380 10380 10379 10379 10379 10380 10381 10382 10383 10384 10386 10387 10389 10391 10392 10393 10394 10397 10401 10403 10405 10406 10408 10411 10413 10415 10418 10421 10424 10426 10427 10430 10435 10439 10442 10446 10449 10452 10455 10458 10461 10463 10465 10467 10469 10471 10473 10475 10478 10479 10481 10484 10487 10490 10493 10496 10500 10504 10507 10511 10515 10519 10523 10527 10530 10534 10538 10541 10543 10545
10364 10366 10367 10369 10371 10372 10373 10374 10374 10375 10375 10375 10376 10375 10375 10375 10374 10374 10374 10373 10372 10372 10372 10372 10373 10373 10374 10376 10377 10379 10381 10383 10385 10387 10389 10392 10395 10397 10399 10401 10404 10407 10410 10412 10414 10416 10419 10422 10424 10426 10430 10434 10438 10442 10444 10446 10449 10453 10456 10458 10460 10463 10465 10467 10469 10472 10474 10476 10478 10481 10483 10487 10490 10494 10498 10501 10504 10508 10512 10516 10520 10524 10528 10531 10534 10537 10540 10543
10361 10363 10364 10365 10367 10369 10369 10369 10370 10370 10370 10370 10370 10369 10368 10368 10368 10368 10367 10366 10365 10364 10364 10365 10365 10365 10366 10367 10368 10370 10373 10375 10377 10381 10384 10386 10388 10389 10392 10396 10400 10404 10407 10409 10410 10412 10415 10418 10420 10422 10425 10429 10434 10437 10438 10441 10445 10449 10451 10453 10456 10459 10461 10463 10466 10468 10470 10472 10474 10477 10479 10483 10488 10493 10496 10499 10502 10505 10508 10512 10516 10521 10526 10530 10532 10534 10537 10539
10358 10359 10360 10362 10364 10364 10365 10365 10366 10366 10365 10365 10364 10363 10361 10361 10361 10361 10360 10358 10357 10356 10356 10356 10356 10357 10357 10359 10360 10361 10364 10367 10370 10373 10377 10380 10381 10382 10387 10392 10396 10399 10402 10404 10406 10408 10411 10413 10416 10418 10420 10424 10429 10432 10433 10436 10440 10444 10447 10449 10451 10454 10457 10459 10461 10464 10466 10469 10471 10473 10475 10480 10485 10490 10494 10496 10498 10501 10504 10508 10512 10515 10519 10524 10529 10532 10533 10534
10354 10356 10358 10359 10360 10360 10361 10361 10361 10361 10360 10359 10358 10357 10355 10354 10354 10354 10352 10351 10350 10348 10347 10347 10347 10348 10349 10350 10351 10352 10354 10358 10362 10366 10370 10374 10375 10377 10382 10387 10390 10393 10396 10398 10401 10404 10406 10409 10411 10414 10416 10418 10423 10427 10429 10432 10436 10439 10442 10444 10446 10450 10452 10455 10457 10460 10463 10465 10467 10469 10473 10477 10482 10486 10489 10491 10494 10497 10500 10504 10507 10510 10512 10516 10521 10525 10527 10529
10351 10353 10355 10355 10356 10356 10357 10357 10357 10356 10355 10354 10353 10351 10349 10349 10348 10346 10344 10343 10342 10341 10340 10339 10339 10339 10341 10342 10343 10344 10346 10349 10353 10358 10363 10367 10370 10372 10376 10381 10384 10387 10389 10392 10395 10399 10402 10404 10407 10409 10411 10413 10417 10423 10425 10427 10431 10434 10437 10440 10442 10445 10448 10450 10453 10456 10458 10461 10464 10466 10469 10473 10477 10479 10482 10486 10490 10494 10497 10499 10502 10505 10507 10510 10513 10516 10519 10522
10349 10351 10351 10351 10352 10353 10353 10353 10352 10350 10350 10349 10347 10345 10343 10342 10341 10339 10337 10335 10335 10334 10333 10332 10331 10332 10333 10334 10335 10337 10339 10341 10344 10350 10355 10359 10362 10365 10369 10374 10377 10381 10383 10385 10389 10393 10397 10400 10402 10405 10407 10409 10412 10417 10420 10423 10426 10429 10432 10435 10438 10441 10444 10446 10449 10452 10454 10457 10460 10463 10466 10468 10470 10473 10477 10482 10487 10490 10493 10495 10497 10499 10502 10505 10507 10509 10511 10513
10346 10347 10347 10348 10349 10349 10349 10348 10347 10345 10344 10343 10341 10339 10337 10336 10334 10333 10331 10329 10328 10327 10326 10325 10324 10325 10326 10328 10329 10330 10332 10334 10337 10343 10348 10351 10354 10357 10362 10366 10369 10372 10376 10379 10383 10387 10391 10395 10398 10401 10404 10406 10408 10412 10416 10418 10421 10423 10427 10431 10434 10437 10440 10442 10445 10448 10450 10452 10455 10458 10461 10463 10465 10468 10473 10478 10483 10486 10488 10490 10492 10495 10498 10500 10502 10504 10505 10507
10343 10343 10344 10345 10345 10345 10345 10344 10342 10341 10338 10337 10336 10334 10332 10331 10329 10327 10325 10324 10322 10321 10320 10319 10319 10319 10320 10322 10323 10324 10325 10328 10332 10337 10341 10343 10347 10351 10355 10359 10361 10364 10368 10372 10377 10382 10386 10390 10393 10396 10398 10401 10403 10406 10410 10413 10415 10419 10422 10426 10430 10433 10435 10438 10441 10444 10446 10448 10450 10453 10455 10458 10461 10465 10469 10473 10477 10479 10482 10484 10487 10490 10493 10495 10498 10499 10500 10501